• In Hungary
  • List of Countries
  • For 7 days
  • Water Temperature
  • Satellite Maps
  • Weather Map
  • News
  • Weather Widgets
  • user-avatar
    Login

    Hourly Weather Ekaterinburg

    Today, 26 September, Wednesday

    Time Temperature Precipitation Wind Pressure Humidity
    00:00 +14°C° 0 mm 3 mps 726 mmHg 70%
    01:00 +13°C° 0 mm 3 mps 726 mmHg 69%
    02:00 +13°C° 0 mm 3 mps 726 mmHg 69%
    03:00 +12°C° 0 mm 3 mps 726 mmHg 68%
    04:00 +12°C° 0 mm 2 mps 726 mmHg 76%
    05:00 +12°C° 0 mm 2 mps 726 mmHg 74%
    06:00 +11°C° 0 mm 3 mps 726 mmHg 72%
    07:00 +12°C° 0 mm 3 mps 726 mmHg 70%
    08:00 +14°C° 0 mm 4 mps 726 mmHg 64%
    09:00 +15°C° 0 mm 5 mps 727 mmHg 58%
    10:00 +17°C° 0 mm 5 mps 727 mmHg 51%
    11:00 +17°C° 0 mm 5 mps 727 mmHg 51%
    12:00 +19°C° 0 mm 5 mps 727 mmHg 52%
    13:00 +19°C° 0 mm 5 mps 727 mmHg 52%
    14:00 +17°C° 0 mm 5 mps 727 mmHg 54%
    15:00 +17°C° 0 mm 5 mps 727 mmHg 56%
    16:00 +17°C° 0 mm 4 mps 727 mmHg 58%
    17:00 +15°C° 0 mm 4 mps 727 mmHg 62%
    18:00 +14°C° 0 mm 3 mps 727 mmHg 65%
    19:00 +13°C° 0 mm 3 mps 727 mmHg 69%
    20:00 +12°C° 0 mm 3 mps 727 mmHg 72%
    21:00 +13°C° 0 mm 2 mps 726 mmHg 75%
    22:00 +12°C° 0 mm 2 mps 726 mmHg 78%
    23:00 +12°C° 0.1 mm 2 mps 726 mmHg 81%

    Tomorrow, 27 September, Thursday

    Time Temperature Precipitation Wind Pressure Humidity
    00:00 +12°C° 0.1 mm 2 mps 726 mmHg 83%
    01:00 +12°C° 0.1 mm 2 mps 726 mmHg 85%
    02:00 +12°C° 0.4 mm 2 mps 726 mmHg 88%
    03:00 +11°C° 0.4 mm 1 mps 725 mmHg 90%
    04:00 +11°C° 0.4 mm 1 mps 725 mmHg 93%
    05:00 +10°C° 1.1 mm 2 mps 724 mmHg 93%
    06:00 +10°C° 1.1 mm 2 mps 724 mmHg 93%
    07:00 +10°C° 1.1 mm 2 mps 724 mmHg 93%
    08:00 +10°C° 0.6 mm 3 mps 723 mmHg 92%
    09:00 +10°C° 0.6 mm 3 mps 723 mmHg 91%
    10:00 +10°C° 0.6 mm 3 mps 723 mmHg 90%
    11:00 +9°C° 0.5 mm 3 mps 723 mmHg 88%
    12:00 +9°C° 0.5 mm 3 mps 723 mmHg 86%
    13:00 +8°C° 0.5 mm 3 mps 723 mmHg 85%
    14:00 +8°C° 0.1 mm 3 mps 722 mmHg 83%
    15:00 +8°C° 0.1 mm 3 mps 722 mmHg 81%
    16:00 +8°C° 0.1 mm 3 mps 722 mmHg 80%
    17:00 +8°C° 0 mm 3 mps 722 mmHg 82%
    18:00 +7°C° 0 mm 3 mps 722 mmHg 85%
    19:00 +5°C° 0 mm 3 mps 722 mmHg 88%
    20:00 +5°C° 0 mm 3 mps 721 mmHg 88%
    21:00 +4°C° 0 mm 3 mps 721 mmHg 89%
    22:00 +4°C° 0 mm 3 mps 720 mmHg 89%
    23:00 +4°C° 0 mm 3 mps 720 mmHg 88%

    Day after tomorrow, 28 September, Friday

    Time Temperature Precipitation Wind Pressure Humidity
    00:00 +4°C° 0 mm 3 mps 719 mmHg 86%
    01:00 +3°C° 0 mm 3 mps 719 mmHg 85%
    02:00 +4°C° 0.1 mm 3 mps 718 mmHg 84%
    03:00 +4°C° 0.1 mm 3 mps 717 mmHg 84%
    04:00 +4°C° 0.1 mm 4 mps 717 mmHg 83%
    05:00 +4°C° 0.4 mm 4 mps 716 mmHg 84%
    06:00 +4°C° 0.4 mm 4 mps 715 mmHg 85%
    07:00 +4°C° 0.4 mm 4 mps 715 mmHg 86%
    08:00 +3°C° 0.2 mm 5 mps 715 mmHg 84%
    09:00 +5°C° 0.2 mm 5 mps 715 mmHg 83%
    10:00 +5°C° 0.2 mm 5 mps 715 mmHg 81%
    11:00 +4°C° 0.2 mm 6 mps 715 mmHg 79%
    12:00 +5°C° 0.2 mm 6 mps 715 mmHg 76%
    13:00 +5°C° 0.2 mm 6 mps 716 mmHg 73%
    14:00 +5°C° 0.1 mm 6 mps 716 mmHg 73%
    15:00 +4°C° 0.1 mm 6 mps 717 mmHg 73%
    16:00 +4°C° 0.1 mm 6 mps 718 mmHg 73%
    17:00 +3°C° 0 mm 5 mps 718 mmHg 77%
    18:00 +3°C° 0 mm 5 mps 718 mmHg 80%
    19:00 +3°C° 0 mm 4 mps 719 mmHg 83%
    20:00 +3°C° 0 mm 4 mps 719 mmHg 85%
    21:00 +2°C° 0 mm 3 mps 719 mmHg 87%
    22:00 +2°C° 0 mm 3 mps 719 mmHg 89%
    23:00 +2°C° 0 mm 3 mps 718 mmHg 88%

    29 September, Saturday

    Time Temperature Precipitation Wind Pressure Humidity
    00:00 +3°C° 0 mm 4 mps 717 mmHg 87%
    01:00 +3°C° 0 mm 4 mps 717 mmHg 86%
    02:00 +3°C° 0.4 mm 5 mps 716 mmHg 85%
    03:00 +5°C° 0.4 mm 5 mps 716 mmHg 84%
    04:00 +4°C° 0.4 mm 6 mps 715 mmHg 83%
    05:00 +5°C° 0.4 mm 6 mps 714 mmHg 83%
    06:00 +5°C° 0.4 mm 7 mps 714 mmHg 82%
    07:00 +6°C° 0.4 mm 7 mps 714 mmHg 82%
    08:00 +6°C° 0.3 mm 7 mps 714 mmHg 82%
    09:00 +8°C° 0.3 mm 7 mps 714 mmHg 81%
    10:00 +8°C° 0.3 mm 7 mps 715 mmHg 81%
    11:00 +8°C° 0.1 mm 7 mps 716 mmHg 76%
    12:00 +6°C° 0.1 mm 8 mps 717 mmHg 71%
    13:00 +6°C° 0.1 mm 8 mps 718 mmHg 66%
    14:00 +6°C° 0 mm 7 mps 718 mmHg 65%
    15:00 +6°C° 0 mm 7 mps 719 mmHg 63%
    16:00 +7°C° 0 mm 6 mps 720 mmHg 61%
    17:00 +5°C° 0 mm 6 mps 720 mmHg 65%
    18:00 +3°C° 0 mm 5 mps 721 mmHg 69%
    19:00 +3°C° 0 mm 4 mps 722 mmHg 73%
    20:00 +1°C° 0 mm 4 mps 722 mmHg 73%
    21:00 +1°C° 0 mm 4 mps 722 mmHg 74%
    22:00 0°C° 0 mm 4 mps 723 mmHg 74%
    23:00 -1°C° 0 mm 4 mps 723 mmHg 75%

    30 September, Sunday

    Time Temperature Precipitation Wind Pressure Humidity
    00:00 -1°C° 0 mm 4 mps 724 mmHg 76%
    01:00 0°C° 0 mm 3 mps 724 mmHg 78%
    02:00 -1°C° 0 mm 3 mps 724 mmHg 79%
    03:00 -1°C° 0 mm 3 mps 724 mmHg 80%
    04:00 -1°C° 0 mm 3 mps 725 mmHg 81%
    05:00 -2°C° 0 mm 4 mps 725 mmHg 81%
    06:00 -2°C° 0 mm 4 mps 725 mmHg 80%
    07:00 -1°C° 0 mm 4 mps 725 mmHg 79%
    08:00 0°C° 0 mm 4 mps 725 mmHg 75%
    09:00 +1°C° 0 mm 4 mps 726 mmHg 70%
    10:00 +3°C° 0 mm 4 mps 726 mmHg 66%
    11:00 +3°C° 0 mm 4 mps 726 mmHg 65%
    12:00 +4°C° 0 mm 4 mps 726 mmHg 65%
    13:00 +4°C° 0 mm 3 mps 726 mmHg 64%
    14:00 +4°C° 0 mm 3 mps 726 mmHg 65%
    15:00 +4°C° 0 mm 3 mps 726 mmHg 66%
    16:00 +4°C° 0 mm 3 mps 726 mmHg 66%
    17:00 +4°C° 0 mm 2 mps 725 mmHg 73%
    18:00 +2°C° 0 mm 2 mps 725 mmHg 80%
    19:00 +2°C° 0 mm 1 mps 725 mmHg 87%
    20:00 +2°C° 0 mm 1 mps 725 mmHg 88%
    21:00 +2°C° 0 mm 1 mps 725 mmHg 89%
    22:00 +2°C° 0 mm 1 mps 725 mmHg 91%
    23:00 +2°C° 0 mm 1 mps 725 mmHg 91%

    1 October, Monday

    Time Temperature Precipitation Wind Pressure Humidity
    00:00 +2°C° 0 mm 1 mps 725 mmHg 91%
    01:00 +2°C° 0 mm 1 mps 725 mmHg 91%
    02:00 +2°C° 0 mm 1 mps 724 mmHg 92%
    03:00 +1°C° 0 mm 1 mps 724 mmHg 92%
    04:00 -1°C° 0 mm 2 mps 724 mmHg 92%
    05:00 -1°C° 0 mm 2 mps 724 mmHg 91%
    06:00 -1°C° 0 mm 2 mps 724 mmHg 89%
    07:00 -1°C° 0 mm 2 mps 724 mmHg 88%
    08:00 0°C° 0 mm 3 mps 724 mmHg 81%
    09:00 +2°C° 0 mm 3 mps 724 mmHg 75%
    10:00 +3°C° 0 mm 3 mps 724 mmHg 69%
    11:00 +3°C° 0 mm 4 mps 724 mmHg 66%
    12:00 +4°C° 0 mm 4 mps 724 mmHg 64%
    13:00 +4°C° 0 mm 4 mps 724 mmHg 61%
    14:00 +4°C° 0 mm 4 mps 724 mmHg 62%
    15:00 +3°C° 0 mm 4 mps 724 mmHg 63%
    16:00 +3°C° 0 mm 4 mps 724 mmHg 64%
    17:00 +1°C° 0 mm 4 mps 725 mmHg 68%
    18:00 0°C° 0 mm 4 mps 725 mmHg 71%
    19:00 -1°C° 0 mm 4 mps 725 mmHg 74%
    20:00 -1°C° 0 mm 4 mps 725 mmHg 75%
    21:00 -1°C° 0 mm 3 mps 726 mmHg 75%
    22:00 -1°C° 0 mm 3 mps 726 mmHg 76%
    23:00 -2°C° 0 mm 3 mps 726 mmHg 76%
    Show more